Weather History for Hamilton, OH

Change the Weather History Date:

Wednesday, December 26, 2012

  Actual Average (KCVG) Record (KCVG)
Temperature  
Mean Temperature 32 °F 32 °F  
Max Temperature 35 °F 39 °F 64 °F (1889)
Min Temperature 30 °F 24 °F -3 °F (1983)
Degree Days  
Heating Degree Days 32 33  
Month to date heating degree days 790  
Since 1 July heating degree days 1750  
Cooling Degree Days 0 0  
Month to date cooling degree days 0  
Year to date cooling degree days 1121  
Moisture  
Dew Point 28 °F    
Average Humidity 85    
Maximum Humidity 93    
Minimum Humidity 70    
Precipitation  
Precipitation 0.74 in 0.11 in 1.39 in (1895)
Month to date precipitation 2.83  
Year to date precipitation 41.98  
Snow  
Snow 0.00 in 0.20 in 3.30 in (1930)
Month to date snowfall 3.8  
Since 1 July snowfall 4.6  
Snow Depth -    
Sea Level Pressure  
Sea Level Pressure 29.70 in    
Wind  
Wind Speed 14 mph (NNE)    
Max Wind Speed 22 mph    
Max Gust Speed 34 mph    
Visibility 4 miles    
Events Fog , Rain , Snow    
T = Trace of Precipitation, MM = Missing Value Source: NWS Daily Summary

Daily Weather History Graph

Daily Weather History Graph

Search for Another Location

Airport:

Trip Planner

Search our weather history database for the weather conditions in past years. The results will help you decide how hot, cold, wet, or windy it might be!

Date:

Astronomy

Dec. 26, 2012 Rise Set
Actual Time 7:56 AM EST 5:21 PM EST
Civil Twilight 7:26 AM EST 5:51 PM EST
Nautical Twilight 6:52 AM EST 6:25 PM EST
Astronomical Twilight 6:20 AM EST 6:57 PM EST
Moon 4:13 PM EST (12/26) 6:19 AM EST (12/26)
Length of Visible Light 10h 24m
Length of Day
9h 24m
Waxing Gibbous, 97% of the Moon is Illuminated
Dec 26
Waxing Gibbous
Dec 28
Full
Jan 4
Last Quarter
Jan 11
New
Jan 18
First Quarter

Hourly Weather History & Observations

Time (EST) Temp. Windchill Dew Point Humidity Pressure Visibility Wind Dir Wind Speed Gust Speed Precip Events Conditions
12:17 AM 35.6 °F 26.6 °F 26.6 °F 70% 30.03 in 10.0 mi ENE 13.8 mph 23.0 mph N/A   Overcast
12:53 AM 35.1 °F 26.9 °F 26.1 °F 70% 30.04 in 10.0 mi ENE 11.5 mph 20.7 mph N/A   Overcast
1:15 AM 35.6 °F 27.1 °F 26.6 °F 70% 30.01 in 10.0 mi ENE 12.7 mph 21.9 mph N/A   Overcast
1:53 AM 35.1 °F 25.5 °F 26.1 °F 70% 29.99 in 10.0 mi ENE 15.0 mph 20.7 mph N/A   Overcast
2:53 AM 35.1 °F 24.5 °F 26.1 °F 70% 29.93 in 10.0 mi ENE 18.4 mph 25.3 mph N/A   Overcast
3:53 AM 35.1 °F 25.2 °F 26.1 °F 70% 29.90 in 10.0 mi ENE 16.1 mph 21.9 mph N/A   Overcast
4:53 AM 34.0 °F 23.8 °F 27.0 °F 75% 29.80 in 6.0 mi ENE 16.1 mph 29.9 mph 0.00 in Snow Light Snow
5:16 AM 33.8 °F 22.2 °F 26.6 °F 75% 29.77 in 2.5 mi NE 20.7 mph 28.8 mph 0.03 in Snow Light Snow
5:30 AM 33.8 °F 23.5 °F 28.4 °F 81% 29.77 in 4.0 mi NE 16.1 mph 27.6 mph 0.04 in Snow Light Snow
5:53 AM 34.0 °F 22.7 °F 28.0 °F 79% 29.77 in 5.0 mi NE 19.6 mph 28.8 mph 0.08 in Rain Light Rain
6:29 AM 33.8 °F 22.5 °F 28.4 °F 81% 29.72 in 4.0 mi NE 19.6 mph 28.8 mph 0.05 in Snow Light Snow
6:40 AM 33.8 °F 22.5 °F 28.4 °F 81% 29.71 in 4.0 mi NE 19.6 mph 28.8 mph 0.08 in Rain Light Freezing Rain
6:59 AM 33.8 °F 22.5 °F 30.2 °F 87% 29.68 in 1.8 mi NE 19.6 mph 31.1 mph 0.05 in Snow Light Snow
7:09 AM 33.8 °F 22.2 °F 30.2 °F 87% 29.68 in 1.0 mi NE 20.7 mph 29.9 mph 0.09 in Snow Light Snow
7:40 AM 33.8 °F 21.9 °F 30.2 °F 87% 29.65 in 1.8 mi NE 21.9 mph 34.5 mph 0.22 in Snow Light Snow
7:43 AM 33.8 °F 22.5 °F 28.4 °F 81% 29.65 in 3.0 mi NE 19.6 mph 34.5 mph 0.22 in Snow Light Snow
7:53 AM 33.1 °F 21.2 °F 28.9 °F 85% 29.66 in 5.0 mi NE 20.7 mph 31.1 mph 0.24 in Snow Light Snow
8:19 AM 33.8 °F 23.2 °F 30.2 °F 87% 29.62 in 3.0 mi ENE 17.3 mph 33.4 mph 0.07 in Rain Light Freezing Rain
8:53 AM 33.1 °F 24.4 °F 30.0 °F 89% 29.65 in 4.0 mi ENE 11.5 mph 23.0 mph 0.12 in Rain Light Freezing Rain
9:06 AM 33.8 °F 25.3 °F 30.2 °F 87% 29.64 in 6.0 mi East 11.5 mph 21.9 mph 0.01 in Rain Light Freezing Rain
9:11 AM 33.8 °F 25.8 °F 30.2 °F 87% 29.64 in 2.5 mi ENE 10.4 mph 21.9 mph 0.01 in Snow Light Snow
9:19 AM 33.8 °F 24.8 °F 30.2 °F 87% 29.63 in 1.0 mi ENE 12.7 mph - 0.02 in Snow Light Snow
9:26 AM 33.8 °F 25.3 °F 30.2 °F 87% 29.63 in 0.5 mi NE 11.5 mph 20.7 mph 0.03 in Fog , Snow Snow
9:35 AM 33.8 °F 25.8 °F 30.2 °F 87% 29.63 in 0.2 mi ENE 10.4 mph 20.7 mph 0.04 in Fog , Snow Heavy Snow
9:53 AM 33.1 °F 25.5 °F 30.9 °F 92% 29.65 in 0.8 mi NE 9.2 mph - 0.08 in Snow Light Snow
10:06 AM 33.8 °F 25.8 °F 30.2 °F 87% 29.63 in 1.5 mi NNE 10.4 mph - 0.02 in Snow Light Snow
10:09 AM 33.8 °F 25.3 °F 30.2 °F 87% 29.63 in 1.8 mi NE 11.5 mph - 0.02 in Snow Light Snow
10:15 AM 33.8 °F 24.8 °F 30.2 °F 87% 29.63 in 2.0 mi NNE 12.7 mph 18.4 mph 0.03 in Snow Light Snow
10:19 AM 33.8 °F 25.3 °F 30.2 °F 87% 29.63 in 3.0 mi NE 11.5 mph 18.4 mph 0.04 in Snow Light Snow
10:28 AM 33.8 °F 24.8 °F 30.2 °F 87% 29.63 in 1.5 mi NE 12.7 mph - 0.05 in Snow Light Snow
10:33 AM 33.8 °F 25.8 °F 30.2 °F 87% 29.63 in 0.8 mi NE 10.4 mph - 0.05 in Snow Light Snow
10:53 AM 33.1 °F 24.4 °F 30.9 °F 92% 29.63 in 0.5 mi NNE 11.5 mph - 0.09 in Fog , Snow Snow
11:16 AM 32.0 °F 23.0 °F 30.2 °F 93% 29.61 in 1.5 mi NNE 11.5 mph - 0.04 in Snow Light Snow
11:20 AM 32.0 °F 24.2 °F 30.2 °F 93% 29.61 in 2.0 mi NNE 9.2 mph - 0.04 in Snow Light Snow
11:41 AM 32.0 °F 22.1 °F 30.2 °F 93% 29.60 in 2.0 mi NNE 13.8 mph - 0.06 in Snow Light Snow
11:53 AM 32.0 °F 22.1 °F 30.0 °F 92% 29.61 in 2.0 mi NNE 13.8 mph 20.7 mph 0.07 in Snow Light Snow
12:13 PM 32.0 °F 22.5 °F 30.2 °F 93% 29.59 in 1.5 mi NNE 12.7 mph - 0.01 in Snow Light Snow
12:34 PM 32.0 °F 22.5 °F 30.2 °F 93% 29.58 in 1.8 mi NNE 12.7 mph - 0.02 in Snow Light Snow
12:42 PM 32.0 °F 22.1 °F 28.4 °F 87% 29.58 in 2.0 mi NNE 13.8 mph 20.7 mph 0.02 in Snow Light Snow
12:53 PM 32.0 °F 21.2 °F 28.9 °F 88% 29.60 in 1.8 mi NNE 16.1 mph 21.9 mph 0.03 in Snow Light Snow
1:22 PM 32.0 °F 22.5 °F 28.4 °F 87% 29.58 in 1.8 mi North 12.7 mph 21.9 mph 0.00 in Rain Light Freezing Rain
1:31 PM 32.0 °F 22.5 °F 28.4 °F 87% 29.58 in 1.8 mi North 12.7 mph - 0.00 in Rain Light Freezing Rain
1:34 PM 32.0 °F 21.6 °F 28.4 °F 87% 29.58 in 2.0 mi North 15.0 mph 21.9 mph 0.00 in Rain Light Freezing Rain
1:51 PM 30.2 °F 19.8 °F 28.4 °F 93% 29.58 in 2.0 mi North 13.8 mph 24.2 mph 0.00 in Snow Light Snow
1:53 PM 30.9 °F 22.2 °F 28.0 °F 89% 29.60 in 1.8 mi North 10.4 mph 24.2 mph 0.00 in Snow Light Snow
2:02 PM 30.2 °F 20.2 °F 28.4 °F 93% 29.58 in 1.5 mi North 12.7 mph - 0.00 in Snow Light Snow
2:29 PM 30.2 °F 20.8 °F 28.4 °F 93% 29.58 in 0.8 mi NNE 11.5 mph 20.7 mph 0.01 in Snow Light Snow
2:53 PM 30.9 °F 21.2 °F 28.0 °F 89% 29.61 in 0.5 mi North 12.7 mph - 0.01 in Fog , Snow Snow
3:29 PM 30.2 °F 20.2 °F 26.6 °F 86% 29.61 in 1.0 mi North 12.7 mph 20.7 mph 0.02 in Snow Light Snow
3:53 PM 30.9 °F 22.2 °F 27.0 °F 85% 29.64 in 1.2 mi North 10.4 mph - 0.02 in Snow Light Snow
4:06 PM 30.2 °F 20.8 °F 26.6 °F 86% 29.63 in 2.0 mi North 11.5 mph - 0.00 in Snow Light Snow
4:13 PM 30.2 °F 21.3 °F 26.6 °F 86% 29.63 in 2.0 mi North 10.4 mph 17.3 mph 0.00 in Snow Light Snow
4:22 PM 30.2 °F 19.3 °F 26.6 °F 86% 29.64 in 1.8 mi North 15.0 mph 20.7 mph 0.00 in Snow Light Snow
4:35 PM 30.2 °F 20.2 °F 26.6 °F 86% 29.65 in 2.0 mi North 12.7 mph - 0.00 in Snow Light Snow
4:43 PM 30.2 °F 21.3 °F 28.4 °F 93% 29.65 in 1.8 mi NNW 10.4 mph - 0.00 in Snow Light Snow
4:53 PM 30.9 °F 20.7 °F 27.0 °F 85% 29.68 in 1.2 mi North 13.8 mph 19.6 mph 0.00 in Snow Light Snow
5:36 PM 30.2 °F 19.8 °F 26.6 °F 86% 29.69 in 4.0 mi North 13.8 mph 20.7 mph 0.00 in Snow Light Snow
5:53 PM 30.9 °F 20.7 °F 27.0 °F 85% 29.72 in 9.0 mi North 13.8 mph 24.2 mph 0.00 in   Overcast
6:41 PM 32.0 °F 22.5 °F 26.6 °F 80% 29.74 in 7.0 mi North 12.7 mph - 0.00 in Snow Light Snow
6:53 PM 32.0 °F 22.5 °F 28.0 °F 85% 29.77 in 5.0 mi NW 12.7 mph - 0.00 in Snow Light Snow
7:53 PM 30.9 °F 21.2 °F 26.1 °F 82% 29.81 in 10.0 mi NNW 12.7 mph 25.3 mph 0.00 in   Overcast
8:32 PM 30.2 °F 17.8 °F 24.8 °F 80% 29.82 in 10.0 mi NNW 19.6 mph 26.5 mph N/A   Overcast
8:53 PM 30.0 °F 17.5 °F 24.1 °F 79% 29.86 in 10.0 mi NW 19.6 mph 25.3 mph N/A   Overcast
9:53 PM 30.0 °F 20.5 °F 23.0 °F 75% 29.89 in 10.0 mi NNW 11.5 mph - N/A   Overcast
10:53 PM 30.0 °F 19.5 °F 23.0 °F 75% 29.94 in 10.0 mi NNW 13.8 mph 24.2 mph N/A   Overcast
11:53 PM 30.0 °F 21.1 °F 21.9 °F 72% 29.95 in 10.0 mi NW 10.4 mph - N/A   Overcast